Stations météo

réclame
Mon MeteoGroup
Berlin/Tegel, Allemagne (10382): Température de l'air & dewpoint: 17.10.2018 08:00:00 - 23.10.2018 08:00:00 (CEST)Berlin/Tegel, Allemagne (10382): Température de l'air 5cm & Température de l'air -5cm: 17.10.2018 08:00:00 - 23.10.2018 08:00:00 (CEST)Berlin/Tegel, Allemagne (10382): Température de l'air -20cm & Température de l'air -100cm: 17.10.2018 08:00:00 - 23.10.2018 08:00:00 (CEST)Berlin/Tegel, Allemagne (10382): Vitesse du vent & gusts: 17.10.2018 08:00:00 - 23.10.2018 08:00:00 (CEST)Berlin/Tegel, Allemagne (10382): Direction du vent: 17.10.2018 08:00:00 - 23.10.2018 08:00:00 (CEST)Berlin/Tegel, Allemagne (10382): reduced air pressure: 17.10.2018 08:00:00 - 23.10.2018 08:00:00 (CEST)Berlin/Tegel, Allemagne (10382): visibility: 17.10.2018 08:00:00 - 23.10.2018 08:00:00 (CEST)Berlin/Tegel, Allemagne (10382): Ensoleillement: 17.10.2018 08:00:00 - 23.10.2018 08:00:00 (CEST)Berlin/Tegel, Allemagne (10382): Quantités de précipitations: 17.10.2018 08:00:00 - 23.10.2018 08:00:00 (CEST)
Date & Time tt [°C] td [°C] tt 5cm [°C] tt -5cm [°C] tt -20cm [°C] tt -100cm [°C] ff [km/h] ff [knt] fx [km/h] fx [knt] dd ppp [hPa] vv [km] sd [min] rr [mm]
23.10.2018 08:00:00 7,3 3,0 6,5 5,8 8,2 13,8 34 18 49 27 WSW 1017,6 10 0 0,0
23.10.2018 07:00:00 6,8 3,1 5,9 5,3 8,2 13,8 31 17 49 27 WSW 1019,0 10 0 0,0
23.10.2018 06:00:00 5,9 2,9 4,4 4,7 8,4 13,8 24 13 36 19 WSW 1021,0 10 0 0,0
23.10.2018 05:00:00 5,1 2,7 3,2 4,5 8,5 13,8 20 11 28 15 WSW 1022,7 35 0 0,0
23.10.2018 04:00:00 4,5 2,4 2,6 4,3 8,8 13,8 18 10 28 15 WSW 1024,2 10 0 0,0
23.10.2018 03:00:00 3,5 2,0 1,4 4,3 9,1 13,8 15 8 18 10 WSW 1025,1 10 0 0,0
23.10.2018 02:00:00 2,7 1,1 -0,3 4,5 9,4 13,9 11 6 15 8 W 1026,6 35 0 0,0
23.10.2018 01:00:00 3,4 1,5 -0,4 4,9 9,7 13,9 11 6 15 8 W 1027,4 10 0 0,0
23.10.2018 00:00:00 5,1 2,3 -0,2 5,4 10,1 13,9 8 4 13 7 W 1028,0 40 0 0,0
22.10.2018 23:00:00 4,9 2,5 0,4 5,9 10,4 13,9 9 5 11 6 W 1028,5 10 0 0,0
22.10.2018 22:00:00 4,9 3,2 0,4 6,6 10,8 13,9 5 3 11 6 W 1028,7 10 0 0,0
22.10.2018 21:00:00 4,5 2,6 0,4 7,4 11,1 13,9 4 2 9 5 W 1028,8 10 0 0,0
22.10.2018 20:00:00 6,7 4,0 1,7 8,5 11,4 13,9 8 4 16 9 WNW 1029,0 10 0 0,0
22.10.2018 19:00:00 9,3 3,8 5,9 9,7 11,6 13,9 11 6 18 10 NW 1028,7 10 0 0,0
22.10.2018 18:00:00 10,4 4,6 7,4 11,2 11,6 14,0 9 5 18 10 NNW 1028,2 45 8 0,0
22.10.2018 17:00:00 11,4 5,1 10,3 12,0 11,5 14,0 11 6 22 12 NNW 1027,7 10 18 0,0
22.10.2018 16:00:00 11,6 6,1 11,6 12,4 11,3 14,0 14 7 34 18 NNW 1027,4 45 46 0,0
22.10.2018 15:00:00 10,5 7,8 10,2 11,8 11,1 14,0 13 7 23 12 NW 1027,2 10 0 0,0
22.10.2018 14:00:00 10,1 8,6 10,3 11,0 11,0 14,0 9 5 34 18 NNW 1027,2 10 0 0,7
22.10.2018 13:00:00 9,9 9,4 9,9 10,8 11,0 14,0 9 5 21 11 NNW 1027,0 4,0 0 1,1
22.10.2018 12:00:00 9,6 8,9 9,9 10,7 10,8 14,0 11 6 27 14 WNW 1026,6 2,0 0 0,6
22.10.2018 11:00:00 10,8 6,5 11,6 10,5 10,7 14,0 13 7 18 10 W 1026,0 10 0 0,0
22.10.2018 10:00:00 10,3 5,7 10,7 9,9 10,7 14,0 9 5 15 8 WSW 1025,9 25 0 0,0
22.10.2018 09:00:00 9,8 5,4 10,1 9,3 10,7 14,0 11 6 15 8 WSW 1025,4 25 0 0,0
22.10.2018 08:00:00 9,1 5,2 8,7 8,8 10,8 14,0 9 5 11 6 WSW 1025,3 10 0 0,0
22.10.2018 07:00:00 8,1 4,6 7,6 8,3 10,9 14,1 8 5 9 5 SSW 1025,1 30 0 0,0
22.10.2018 06:00:00 5,5 3,9 1,2 8,1 11,1 14,1 2 1 5 3 - 1025,4 10 0 0,0
22.10.2018 05:00:00 6,4 4,1 3,3 8,6 11,3 14,1 4 2 8 4 SE 1025,5 10 0 0,0
22.10.2018 04:00:00 6,7 3,8 4,5 9,2 11,4 14,1 5 3 7 4 SSE 1025,7 10 0 0,0
22.10.2018 03:00:00 8,2 4,2 6,2 9,9 11,5 14,1 4 2 8 4 SE 1026,2 45 0 0,0
22.10.2018 02:00:00 8,9 4,7 8,6 9,7 11,6 14,1 5 3 8 4 SSE 1026,6 10 0 0,0
22.10.2018 01:00:00 8,7 4,8 8,1 9,4 11,8 14,1 4 2 8 4 S 1027,0 45 0 0,0
22.10.2018 00:00:00 8,0 4,3 3,5 9,4 12,1 14,1 3 2 9 5 SSE 1027,3 45 0 0,0
21.10.2018 23:00:00 9,1 4,6 5,4 9,9 12,3 14,2 5 3 13 7 S 1027,3 10 0 0,0
21.10.2018 22:00:00 10,2 4,8 7,2 10,4 12,6 14,2 10 5 16 9 S 1027,4 45 0 0,0
21.10.2018 21:00:00 9,9 4,9 7,4 10,9 12,8 14,2 10 5 13 7 S 1027,4 45 0 0,0
21.10.2018 20:00:00 9,2 5,2 4,7 11,7 13,0 14,2 2 1 5 3 - 1027,5 10 0 0,0
21.10.2018 19:00:00 10,4 5,1 5,2 12,9 13,1 14,2 0 0 8 4 N 1027,6 45 0 0,0
21.10.2018 18:00:00 12,0 4,5 7,8 14,4 12,9 14,2 8 4 16 9 WSW 1027,4 45 27 0,0
21.10.2018 17:00:00 14,3 4,9 14,3 15,7 12,6 14,3 11 6 18 10 SW 1027,7 45 60 0,0
21.10.2018 16:00:00 14,7 5,0 17,0 16,3 12,1 14,3 9 5 21 11 SW 1028,0 10 60 0,0
21.10.2018 15:00:00 14,7 4,3 18,3 16,3 11,5 14,3 8 4 17 9 SW 1028,5 45 57 0,0
21.10.2018 14:00:00 14,6 4,7 19,8 15,3 10,9 14,3 9 5 16 9 S 1028,8 40 60 0,0
21.10.2018 13:00:00 13,8 5,0 18,5 13,7 10,3 14,3 8 4 15 8 S 1029,2 10 60 0,0
21.10.2018 12:00:00 12,5 6,3 17,0 11,6 10,0 14,3 7 4 13 7 S 1029,7 18 60 0,0
21.10.2018 11:00:00 9,4 5,9 14,0 9,3 9,9 14,3 3 2 9 5 NW 1030,0 9 59 0,0
21.10.2018 10:00:00 7,0 5,9 7,5 7,1 10,0 14,3 2 1 5 3 - 1029,9 4,0 28 0,0
21.10.2018 09:00:00 3,2 2,8 2,0 6,1 10,3 14,3 2 1 4 2 N 1029,6 1,2 5 0,0
21.10.2018 08:00:00 3,0 2,9 -1,6 6,3 10,5 14,3 4 2 5 3 - 1029,1 1,4 0 0,0
21.10.2018 07:00:00 3,1 2,8 0,3 6,6 10,8 14,4 0 0 5 3 N 1028,9 1,8 0 0,0
21.10.2018 06:00:00 3,0 2,8 -1,6 7,0 11,1 14,4 3 2 5 3 NW 1028,9 10 0 0,0
21.10.2018 05:00:00 3,9 3,5 -1,5 7,5 11,4 14,4 4 2 8 4 W 1028,5 8 0 0,0
21.10.2018 04:00:00 5,1 4,6 0,7 8,1 11,7 14,4 8 4 9 5 WSW 1028,3 10 0 0,0
21.10.2018 03:00:00 5,7 5,1 0,4 8,7 11,9 14,4 5 3 5 3 WSW 1028,6 45 0 0,0
21.10.2018 02:00:00 5,3 4,4 1,8 9,4 12,1 14,4 3 2 4 2 W 1028,4 45 0 0,0
21.10.2018 01:00:00 6,8 4,6 2,0 10,3 12,3 14,4 4 2 8 4 W 1028,4 10 0 0,0
21.10.2018 00:00:00 9,7 5,3 6,7 11,0 12,4 14,4 4 2 9 5 - 1028,3 10 0 0,0
20.10.2018 23:00:00 9,7 4,6 8,7 11,1 12,5 14,5 8 4 11 6 W 1028,4 10 0 0,0
20.10.2018 22:00:00 9,9 4,2 8,8 11,2 12,6 14,5 8 4 13 7 W 1028,5 10 0 0,0
20.10.2018 21:00:00 10,1 3,7 8,2 11,6 12,7 14,5 9 5 15 8 W 1028,4 45 0 0,0
20.10.2018 20:00:00 10,2 3,4 8,7 12,0 12,8 14,5 9 5 11 6 W 1028,4 10 0 0,0
20.10.2018 19:00:00 10,5 3,1 9,0 12,5 12,8 14,5 5 3 15 8 W 1028,4 10 0 0,0
20.10.2018 18:00:00 11,2 3,2 10,5 13,1 12,7 14,5 9 5 15 8 W 1028,3 10 0 0,0
20.10.2018 17:00:00 11,3 3,2 11,7 13,6 12,6 14,5 9 5 29 16 W 1028,5 10 0 0,0
20.10.2018 16:00:00 11,8 2,6 13,0 14,1 12,4 14,5 13 7 23 13 WNW 1028,6 45 0 0,0
20.10.2018 15:00:00 11,9 2,7 13,6 14,2 12,1 14,6 13 7 24 13 WNW 1028,7 45 0 0,0
20.10.2018 14:00:00 11,9 2,1 13,4 14,7 11,6 14,6 15 8 28 15 NW 1028,8 45 19 0,0
20.10.2018 13:00:00 12,2 2,1 18,2 14,1 11,2 14,6 16 9 25 14 WNW 1028,9 45 60 0,0
20.10.2018 12:00:00 11,5 4,2 17,6 12,3 10,9 14,6 11 6 18 10 W 1029,1 10 60 0,0
20.10.2018 11:00:00 10,0 4,3 14,4 10,3 10,8 14,6 11 6 15 8 W 1028,6 10 48 0,0
20.10.2018 10:00:00 6,9 4,4 7,4 8,8 10,8 14,6 8 4 10 5 W 1028,7 10 0 0,0
20.10.2018 09:00:00 5,5 4,1 5,3 8,2 10,9 14,6 8 4 11 6 WSW 1028,4 10 0 0,0
20.10.2018 08:00:00 5,0 4,0 4,3 7,8 11,0 14,6 4 2 13 7 - 1027,8 10 0 0,0
20.10.2018 07:00:00 4,0 3,1 2,9 7,7 11,2 14,6 5 3 13 7 WSW 1027,4 10 0 0,0
20.10.2018 06:00:00 3,9 3,2 1,0 7,8 11,3 14,6 4 2 8 4 WSW 1027,2 30 0 0,0
20.10.2018 05:00:00 3,9 3,3 3,2 7,8 11,6 14,6 4 2 9 5 WSW 1027,3 10 0 0,0
20.10.2018 04:00:00 3,4 2,9 2,3 7,7 11,8 14,6 3 2 8 4 W 1026,7 30 0 0,0
20.10.2018 03:00:00 1,7 1,6 -0,4 7,7 12,2 14,6 3 2 5 3 W 1027,0 35 0 0,0
20.10.2018 02:00:00 2,2 1,9 -2,1 8,1 12,5 14,6 2 1 4 2 W 1026,6 40 0 0,0
20.10.2018 01:00:00 1,7 0,8 -1,4 8,6 12,9 14,6 3 1 4 2 W 1026,6 40 0 0,0
20.10.2018 00:00:00 3,5 2,9 -0,1 9,2 13,3 14,6 2 1 14 7 - 1026,2 10 0 0,0
19.10.2018 23:00:00 4,0 3,1 -0,1 9,9 13,7 14,6 4 2 5 3 W 1026,5 40 0 0,0
19.10.2018 22:00:00 4,6 3,5 0,1 10,7 14,0 14,7 5 3 5 3 W 1026,3 40 0 0,0
19.10.2018 21:00:00 6,2 4,5 1,1 11,7 14,4 14,7 4 2 5 3 NNW 1026,1 40 0 0,0
19.10.2018 20:00:00 8,5 4,7 2,8 12,8 14,7 14,7 4 2 9 5 NNW 1025,6 10 0 0,0
19.10.2018 19:00:00 10,3 5,0 4,6 14,1 14,8 14,7 5 3 11 6 WNW 1025,2 10 0 0,0
19.10.2018 18:00:00 11,8 4,7 8,7 15,7 14,7 14,7 9 5 15 8 WNW 1024,7 10 32 0,0
19.10.2018 17:00:00 13,4 4,2 14,4 17,1 14,5 14,7 9 5 16 9 W 1024,6 45 60 0,0
19.10.2018 16:00:00 13,8 4,3 17,3 17,8 14,1 14,7 8 4 18 10 WNW 1024,8 10 60 0,0
19.10.2018 15:00:00 13,5 4,5 18,6 17,7 13,6 14,7 14 7 21 11 W 1025,3 45 60 0,0
19.10.2018 14:00:00 13,4 5,4 19,3 17,1 13,1 14,7 15 8 24 13 W 1025,5 10 60 0,0
19.10.2018 13:00:00 12,6 5,8 18,4 15,9 12,7 14,7 13 7 22 12 WNW 1025,9 10 60 0,0
19.10.2018 12:00:00 11,2 6,3 16,1 13,7 12,5 14,7 11 6 16 9 NNW 1026,3 10 41 0,0
19.10.2018 11:00:00 9,9 6,3 12,6 11,8 12,5 14,7 8 4 15 8 NNW 1026,2 10 24 0,0
19.10.2018 10:00:00 8,3 5,8 9,9 11,0 12,5 14,7 9 5 15 8 NNW 1026,0 10 12 0,0
19.10.2018 09:00:00 7,5 5,8 8,0 10,2 12,7 14,7 9 5 15 8 NNW 1025,6 10 2 0,0
19.10.2018 08:00:00 7,3 5,9 6,3 10,0 12,9 14,7 5 3 12 6 NNW 1025,1 10 0 0,0
19.10.2018 07:00:00 7,2 6,0 4,6 10,4 13,1 14,8 6 3 9 5 NNW 1024,8 35 0 0,0
19.10.2018 06:00:00 7,7 6,1 5,9 10,8 13,4 14,8 5 3 10 6 NW 1024,6 10 0 0,0
19.10.2018 05:00:00 8,2 6,2 4,8 11,4 13,5 14,8 5 3 13 7 NNW 1024,4 40 0 0,0
19.10.2018 04:00:00 9,7 6,5 9,0 12,0 13,7 14,8 9 5 16 9 N 1024,2 40 0 0,0
19.10.2018 03:00:00 10,2 7,0 9,6 12,2 13,8 14,8 7 4 21 11 N 1024,4 40 0 0,0
19.10.2018 02:00:00 10,6 7,2 9,8 12,6 14,0 14,8 9 5 21 11 N 1024,5 40 0 0,0
19.10.2018 01:00:00 11,2 7,0 9,9 13,1 14,1 14,8 9 5 18 10 N 1024,4 40 0 0,0
19.10.2018 00:00:00 12,0 7,0 11,5 13,4 14,2 14,8 15 8 22 12 N 1024,2 10 0 0,0
18.10.2018 23:00:00 12,7 9,5 12,4 13,7 14,2 14,8 9 5 20 11 N 1023,9 10 0 0,0
18.10.2018 22:00:00 12,8 10,3 12,5 13,9 14,3 14,8 12 7 26 14 N 1023,7 15 0 0,0
18.10.2018 21:00:00 13,0 11,2 12,7 14,2 14,3 14,8 12 6 21 11 NNW 1023,2 8 0 0,0
18.10.2018 20:00:00 13,1 11,9 12,8 14,5 14,4 14,9 8 4 22 12 N 1022,6 5 0 0,0
18.10.2018 19:00:00 13,8 12,8 13,5 14,8 14,4 14,9 10 6 18 10 NNW 1022,0 2,8 0 0,0
18.10.2018 18:00:00 14,0 11,9 14,0 15,2 14,3 14,9 5 3 9 5 NW 1021,4 7 0 0,0
18.10.2018 17:00:00 13,9 11,5 14,3 15,6 14,2 14,9 8 4 15 8 W 1021,2 6 0 0,0
18.10.2018 16:00:00 13,9 11,5 15,0 16,0 13,9 14,9 9 5 20 11 NW 1021,1 6 0 0,0
18.10.2018 15:00:00 13,4 10,6 15,3 16,6 13,5 14,9 11 6 21 11 NNW 1021,1 6 5 0,0
18.10.2018 14:00:00 13,3 9,8 17,3 16,3 13,1 14,9 11 6 23 13 WNW 1021,1 5 8 0,0
18.10.2018 13:00:00 14,0 8,6 17,5 15,6 12,6 14,9 15 8 23 13 WNW 1021,2 10 51 0,0
18.10.2018 12:00:00 14,1 9,1 19,0 13,8 12,4 14,9 11 6 15 8 W 1020,6 8 60 0,0
18.10.2018 11:00:00 12,0 8,5 15,7 11,9 12,3 14,9 8 4 12 7 W 1020,7 7 57 0,0
18.10.2018 10:00:00 10,2 8,7 10,6 10,3 12,4 14,9 8 4 11 6 W 1020,7 6 40 0,0
18.10.2018 09:00:00 8,5 7,6 7,9 9,3 12,5 14,9 2 1 5 3 WNW 1020,3 9 21 0,0
18.10.2018 08:00:00 6,7 6,1 3,0 9,3 12,8 14,9 4 2 5 3 - 1020,1 10 0 0,0
18.10.2018 07:00:00 7,0 6,1 2,6 9,6 13,0 14,9 0 0 4 2 N 1019,4 10 0 0,0
18.10.2018 06:00:00 5,6 5,0 3,1 9,9 13,3 14,9 0 0 5 3 N 1019,6 10 0 0,0
18.10.2018 05:00:00 7,4 6,8 3,7 10,3 13,5 14,9 2 1 5 3 - 1019,3 10 0 0,0
18.10.2018 04:00:00 6,8 6,4 3,4 10,6 13,8 14,9 2 1 4 2 ESE 1019,3 10 0 0,0
18.10.2018 03:00:00 6,4 5,8 4,1 11,1 14,1 14,9 2 1 4 2 W 1019,7 10 0 0,0
18.10.2018 02:00:00 8,5 7,9 4,6 11,5 14,4 14,9 2 1 4 2 E 1019,5 10 0 0,0
18.10.2018 01:00:00 8,7 8,1 5,1 12,0 14,6 14,9 4 2 5 3 NNW 1019,7 10 0 0,0
18.10.2018 00:00:00 9,2 8,1 5,4 12,5 14,9 14,9 2 1 4 2 - 1019,6 10 0 0,0
17.10.2018 23:00:00 10,3 8,5 6,4 13,1 15,2 15,0 2 1 5 3 - 1019,7 10 0 0,0
17.10.2018 22:00:00 12,0 9,5 7,3 13,8 15,5 15,0 4 2 9 5 NNW 1019,8 10 0 0,0
17.10.2018 21:00:00 12,9 9,3 10,4 14,5 15,7 15,0 5 3 8 4 E 1019,4 10 0 0,0
17.10.2018 20:00:00 13,0 9,0 9,4 15,4 15,9 15,0 2 1 4 2 - 1019,2 10 0 0,0
17.10.2018 19:00:00 15,4 9,3 11,2 16,6 15,9 15,0 0 0 8 4 N 1018,9 10 0 0,0
17.10.2018 18:00:00 18,3 8,7 14,8 18,0 15,8 15,0 5 3 9 5 ESE 1018,7 10 27 0,0
17.10.2018 17:00:00 20,2 8,9 19,8 19,2 15,4 15,0 8 4 13 7 SE 1018,5 10 60 0,0
17.10.2018 16:00:00 20,7 8,1 21,9 19,6 14,9 15,0 8 4 13 7 ESE 1018,4 10 60 0,0
17.10.2018 15:00:00 21,1 8,1 23,8 19,4 14,3 15,0 8 4 15 8 SSW 1018,5 10 60 0,0
17.10.2018 14:00:00 20,6 8,4 24,6 18,5 13,7 15,0 5 3 16 9 - 1018,8 10 60 0,0
17.10.2018 13:00:00 19,6 7,6 23,2 17,1 13,2 15,0 5 3 9 5 SE 1019,3 10 60 0,0
17.10.2018 12:00:00 17,9 7,8 20,8 15,1 12,8 15,0 4 2 9 5 - 1019,7 10 60 0,0
17.10.2018 11:00:00 15,8 7,7 17,9 12,9 12,6 15,0 2 1 5 3 - 1019,8 10 60 0,0
17.10.2018 10:00:00 12,7 7,9 14,4 10,9 12,7 15,0 4 2 9 5 - 1019,9 10 60 0,0
17.10.2018 09:00:00 10,0 6,7 8,7 9,7 12,9 15,0 2 1 9 5 - 1020,0 10 27 0,0
17.10.2018 08:00:00 8,3 6,3 5,4 9,6 13,1 15,0 4 2 8 4 NNE 1019,6 13 0 0,0

tt = Température de l'air
td = dewpoint
tt 5cm = Température de l'air 5cm
tt -5cm = Température de l'air -5cm
tt -20cm = Température de l'air -20cm
tt -100cm = Température de l'air -100cm
ff = Vitesse du vent
fx = gusts
dd = Direction du vent
ppp = reduced air pressure
vv = visibility
sd = Ensoleillement
rr = Quantités de précipitations

stations d'obs. à proximité